| time (UTC) | temp C | wind direction | speed KPH | gust KPH | rain 1hr cm | rain 24hr cm | rain mn cm | humidity % | barometer mb |
| 20260906145537 | 23 | 90 | 8.0 | 16.1 | 0.00 | 0.00 | 0.00 | 83 | 1019.8 |
| 20260906145037 | 23 | 102 | 8.0 | 17.7 | 0.00 | 0.00 | 0.00 | 83 | 1019.8 |
| 20260906144550 | 22 | 70 | 6.4 | 17.7 | 0.00 | 0.00 | 0.00 | 84 | 1019.8 |
| 20260906144037 | 22 | 70 | 8.0 | 19.3 | 0.00 | 0.00 | 0.00 | 84 | 1019.7 |
| 20260906143536 | 22 | 90 | 11.3 | 19.3 | 0.00 | 0.00 | 0.00 | 84 | 1019.8 |
| 20260906143059 | 22 | 108 | 8.0 | 16.1 | 0.00 | 0.00 | 0.00 | 85 | 1019.6 |
| 20260906142535 | 22 | 63 | 6.4 | 16.1 | 0.00 | 0.00 | 0.00 | 85 | 1019.6 |
| 20260906142036 | 22 | 85 | 8.0 | 17.7 | 0.00 | 0.00 | 0.00 | 86 | 1019.6 |
| 20260906141609 | 22 | 61 | 6.4 | 17.7 | 0.00 | 0.00 | 0.00 | 86 | 1019.6 |
| 20260906141035 | 22 | 90 | 9.7 | 17.7 | 0.00 | 0.00 | 0.00 | 86 | 1019.7 |
| 20260906140536 | 22 | 66 | 6.4 | 14.5 | 0.00 | 0.00 | 0.00 | 87 | 1019.7 |
| 20260906140052 | 22 | 53 | 8.0 | 17.7 | 0.00 | 0.00 | 0.00 | 87 | 1019.6 |
| 20260906135536 | 21 | 82 | 9.7 | 16.1 | 0.00 | 0.00 | 0.00 | 87 | 1019.6 |
| 20260906135036 | 21 | 82 | 8.0 | 16.1 | 0.00 | 0.00 | 0.00 | 88 | 1019.7 |
| 20260906134549 | 21 | 70 | 9.7 | 19.3 | 0.00 | 0.00 | 0.00 | 88 | 1019.5 |
| 20260906134036 | 21 | 51 | 11.3 | 19.3 | 0.00 | 0.00 | 0.00 | 88 | 1019.5 |
| 20260906133536 | 21 | 53 | 11.3 | 17.7 | 0.00 | 0.00 | 0.00 | 88 | 1019.6 |
| 20260906133105 | 21 | 55 | 9.7 | 20.9 | 0.00 | 0.00 | 0.00 | 89 | 1019.4 |
| 20260906132536 | 21 | 53 | 9.7 | 20.9 | 0.00 | 0.00 | 0.00 | 89 | 1019.5 |
| 20260906132038 | 21 | 53 | 14.5 | 20.9 | 0.00 | 0.00 | 0.00 | 89 | 1019.4 |
| 20260906131606 | 21 | 62 | 8.0 | 16.1 | 0.00 | 0.00 | 0.00 | 89 | 1019.5 |
| 20260906131036 | 20 | 70 | 9.7 | 17.7 | 0.00 | 0.00 | 0.00 | 90 | 1019.4 |
| 20260906130538 | 20 | 45 | 11.3 | 17.7 | 0.00 | 0.00 | 0.00 | 90 | 1019.5 |
| 20260906130058 | 20 | 61 | 4.8 | 12.9 | 0.00 | 0.00 | 0.00 | 90 | 1019.6 |
| 20260906125536 | 20 | 13 | 6.4 | 12.9 | 0.00 | 0.00 | 0.00 | 90 | 1019.7 |
| 20260906125038 | 20 | 19 | 8.0 | 16.1 | 0.00 | 0.00 | 0.00 | 90 | 1019.7 |
| 20260906124606 | 20 | 31 | 8.0 | 16.1 | 0.00 | 0.00 | 0.00 | 90 | 1019.6 |
| 20260906124040 | 20 | 14 | 11.3 | 14.5 | 0.00 | 0.00 | 0.00 | 90 | 1019.6 |
| 20260906123536 | 20 | 23 | 9.7 | 14.5 | 0.00 | 0.00 | 0.00 | 90 | 1019.5 |
| 20260906123105 | 20 | 22 | 9.7 | 14.5 | 0.00 | 0.00 | 0.00 | 90 | 1019.3 |
| 20260906122538 | 20 | 27 | 9.7 | 14.5 | 0.00 | 0.00 | 0.00 | 90 | 1019.4 |
| 20260906122038 | 20 | 20 | 8.0 | 11.3 | 0.00 | 0.00 | 0.00 | 90 | 1019.3 |
| 20260906121552 | 20 | 2 | 8.0 | 11.3 | 0.00 | 0.00 | 0.00 | 90 | 1019.2 |
| 20260906121035 | 20 | 14 | 8.0 | 11.3 | 0.00 | 0.00 | 0.00 | 90 | 1019.3 |
| 20260906120538 | 20 | 7 | 6.4 | 9.7 | 0.00 | 0.00 | 0.00 | 89 | 1019.2 |
| 20260906120051 | 20 | 34 | 3.2 | 6.4 | 0.00 | 0.00 | 0.00 | 89 | 1019.1 |
| 20260906115538 | 20 | 2 | 3.2 | 6.4 | 0.00 | 0.00 | 0.00 | 89 | 1019.0 |
| 20260906115035 | 20 | 10 | 4.8 | 9.7 | 0.00 | 0.00 | 0.00 | 89 | 1019.1 |
| 20260906114550 | 20 | 20 | 3.2 | 12.9 | 0.00 | 0.00 | 0.00 | 89 | 1018.9 |
| 20260906114036 | 20 | 28 | 4.8 | 12.9 | 0.00 | 0.00 | 0.00 | 89 | 1018.8 |
| 20260906113535 | 20 | 32 | 4.8 | 11.3 | 0.00 | 0.00 | 0.00 | 89 | 1018.7 |
| 20260906113055 | 20 | 38 | 4.8 | 8.0 | 0.00 | 0.00 | 0.00 | 89 | 1018.6 |
| 20260906112535 | 20 | 24 | 3.2 | 8.0 | 0.00 | 0.00 | 0.00 | 89 | 1018.6 |
| 20260906112039 | 20 | 28 | 4.8 | 8.0 | 0.00 | 0.00 | 0.00 | 89 | 1018.6 |
| 20260906111551 | 20 | 32 | 4.8 | 8.0 | 0.00 | 0.00 | 0.00 | 89 | 1018.6 |
| 20260906111035 | 20 | 17 | 4.8 | 9.7 | 0.00 | 0.00 | 0.00 | 89 | 1018.6 |
| 20260906110535 | 20 | 22 | 4.8 | 11.3 | 0.00 | 0.00 | 0.00 | 89 | 1018.5 |
| 20260906110057 | 20 | 47 | 6.4 | 12.9 | 0.00 | 0.00 | 0.00 | 89 | 1018.5 |
| 20260906105536 | 20 | 47 | 4.8 | 12.9 | 0.00 | 0.00 | 0.00 | 89 | 1018.3 |
| 20260906105034 | 20 | 39 | 4.8 | 9.7 | 0.00 | 0.00 | 0.00 | 89 | 1018.2 |
| 20260906104557 | 20 | 39 | 4.8 | 14.5 | 0.00 | 0.00 | 0.00 | 89 | 1018.1 |
| 20260906104036 | 20 | 20 | 6.4 | 14.5 | 0.00 | 0.00 | 0.00 | 89 | 1018.0 |
| 20260906103539 | 20 | 53 | 4.8 | 14.5 | 0.00 | 0.00 | 0.00 | 89 | 1017.8 |
| 20260906103054 | 20 | 44 | 6.4 | 14.5 | 0.00 | 0.00 | 0.00 | 89 | 1017.8 |
| 20260906102535 | 20 | 48 | 6.4 | 12.9 | 0.00 | 0.00 | 0.00 | 89 | 1017.8 |
| 20260906102035 | 21 | 36 | 6.4 | 14.5 | 0.00 | 0.00 | 0.00 | 89 | 1017.8 |
| 20260906101553 | 21 | 34 | 8.0 | 14.5 | 0.00 | 0.00 | 0.00 | 89 | 1017.7 |
| 20260906101035 | 21 | 48 | 6.4 | 12.9 | 0.00 | 0.00 | 0.00 | 89 | 1017.7 |
| 20260906100535 | 21 | 49 | 6.4 | 12.9 | 0.00 | 0.00 | 0.00 | 88 | 1017.6 |
| 20260906100047 | 21 | 55 | 6.4 | 12.9 | 0.00 | 0.00 | 0.00 | 89 | 1017.7 |
| 20260906095534 | 21 | 39 | 4.8 | 11.3 | 0.00 | 0.00 | 0.00 | 88 | 1017.7 |
| 20260906095036 | 21 | 47 | 6.4 | 11.3 | 0.00 | 0.00 | 0.00 | 88 | 1017.8 |
| 20260906094603 | 21 | 38 | 4.8 | 8.0 | 0.00 | 0.00 | 0.00 | 88 | 1017.8 |
| 20260906094034 | 21 | 26 | 4.8 | 8.0 | 0.00 | 0.00 | 0.00 | 88 | 1017.8 |
| 20260906093535 | 21 | 41 | 3.2 | 8.0 | 0.00 | 0.00 | 0.00 | 88 | 1017.7 |
| 20260906093056 | 21 | 58 | 4.8 | 8.0 | 0.00 | 0.00 | 0.00 | 88 | 1017.8 |
| 20260906092535 | 21 | 47 | 4.8 | 9.7 | 0.00 | 0.00 | 0.00 | 88 | 1017.7 |
| 20260906092035 | 21 | 57 | 4.8 | 9.7 | 0.00 | 0.00 | 0.00 | 88 | 1017.8 |
| 20260906091551 | 21 | 69 | 3.2 | 6.4 | 0.00 | 0.00 | 0.00 | 88 | 1017.8 |
| 20260906091035 | 21 | 33 | 3.2 | 8.0 | 0.00 | 0.00 | 0.00 | 88 | 1017.9 |
| 20260906090538 | 21 | 43 | 3.2 | 6.4 | 0.00 | 0.00 | 0.00 | 88 | 1018.0 |
| 20260906090053 | 21 | 42 | 3.2 | 8.0 | 0.00 | 0.00 | 0.00 | 88 | 1017.9 |
| 20260906085538 | 21 | 42 | 1.6 | 8.0 | 0.00 | 0.00 | 0.00 | 88 | 1017.9 |
| 20260906085036 | 21 | 62 | 3.2 | 8.0 | 0.00 | 0.00 | 0.00 | 88 | 1017.9 |
| 20260906084558 | 21 | 45 | 3.2 | 8.0 | 0.00 | 0.00 | 0.00 | 88 | 1017.9 |
| 20260906084040 | 21 | 36 | 4.8 | 8.0 | 0.00 | 0.00 | 0.00 | 88 | 1017.9 |
| 20260906083539 | 21 | 48 | 4.8 | 8.0 | 0.00 | 0.00 | 0.00 | 88 | 1017.9 |
| 20260906083057 | 21 | 59 | 3.2 | 8.0 | 0.00 | 0.00 | 0.00 | 88 | 1017.9 |
| 20260906082538 | 21 | 59 | 1.6 | 8.0 | 0.00 | 0.00 | 0.00 | 88 | 1017.9 |
| 20260906082039 | 21 | 78 | 4.8 | 8.0 | 0.00 | 0.00 | 0.00 | 88 | 1018.0 |
| 20260906081602 | 21 | 85 | 4.8 | 12.9 | 0.00 | 0.00 | 0.00 | 88 | 1017.9 |
| 20260906081035 | 21 | 23 | 3.2 | 12.9 | 0.00 | 0.00 | 0.00 | 88 | 1018.1 |
| 20260906080538 | 21 | 34 | 4.8 | 12.9 | 0.00 | 0.00 | 0.00 | 88 | 1018.1 |
| 20260906080059 | 21 | 61 | 3.2 | 12.9 | 0.00 | 0.00 | 0.00 | 88 | 1018.0 |
| 20260906075534 | 21 | 64 | 6.4 | 14.5 | 0.00 | 0.00 | 0.00 | 88 | 1018.0 |
| 20260906075037 | 21 | 45 | 6.4 | 14.5 | 0.00 | 0.00 | 0.00 | 88 | 1018.0 |
| 20260906074556 | 22 | 47 | 6.4 | 16.1 | 0.00 | 0.00 | 0.00 | 88 | 1017.9 |
| 20260906074036 | 22 | 90 | 6.4 | 16.1 | 0.00 | 0.00 | 0.00 | 87 | 1017.9 |
| 20260906073540 | 22 | 66 | 6.4 | 16.1 | 0.00 | 0.00 | 0.00 | 87 | 1017.9 |
| 20260906073057 | 22 | 41 | 8.0 | 14.5 | 0.00 | 0.00 | 0.00 | 87 | 1018.0 |
| 20260906072537 | 22 | 37 | 8.0 | 16.1 | 0.00 | 0.00 | 0.00 | 87 | 1018.0 |
| 20260906072040 | 22 | 46 | 9.7 | 16.1 | 0.00 | 0.00 | 0.00 | 87 | 1018.0 |
| 20260906071552 | 22 | 57 | 9.7 | 14.5 | 0.00 | 0.00 | 0.00 | 88 | 1018.0 |
| 20260906071038 | 22 | 47 | 4.8 | 14.5 | 0.00 | 0.00 | 0.00 | 88 | 1018.0 |
| 20260906070537 | 22 | 47 | 8.0 | 14.5 | 0.00 | 0.00 | 0.00 | 88 | 1018.0 |
| 20260906070057 | 22 | 66 | 8.0 | 12.9 | 0.00 | 0.00 | 0.00 | 87 | 1017.9 |
| 20260906065537 | 22 | 53 | 4.8 | 11.3 | 0.00 | 0.00 | 0.00 | 87 | 1018.2 |
| 20260906065037 | 22 | 36 | 6.4 | 11.3 | 0.00 | 0.00 | 0.00 | 87 | 1018.1 |
| 20260906064554 | 22 | 41 | 6.4 | 12.9 | 0.00 | 0.00 | 0.00 | 87 | 1018.1 |
| 20260906064037 | 22 | 42 | 6.4 | 12.9 | 0.00 | 0.00 | 0.00 | 87 | 1018.1 |
| 20260906063540 | 22 | 55 | 6.4 | 14.5 | 0.00 | 0.00 | 0.00 | 87 | 1018.0 |
| 20260906063057 | 22 | 59 | 6.4 | 14.5 | 0.00 | 0.00 | 0.00 | 87 | 1018.0 |
| 20260906062537 | 22 | 79 | 6.4 | 14.5 | 0.00 | 0.00 | 0.00 | 86 | 1018.1 |
| 20260906062035 | 22 | 68 | 6.4 | 14.5 | 0.00 | 0.00 | 0.00 | 86 | 1018.2 |
| 20260906061556 | 22 | 61 | 8.0 | 17.7 | 0.00 | 0.00 | 0.00 | 86 | 1018.1 |
| 20260906061036 | 23 | 63 | 9.7 | 17.7 | 0.00 | 0.00 | 0.00 | 86 | 1018.2 |
| 20260906060536 | 23 | 65 | 8.0 | 14.5 | 0.00 | 0.00 | 0.00 | 86 | 1018.2 |
| 20260906060127 | 23 | 57 | 9.7 | 14.5 | 0.00 | 0.00 | 0.00 | 86 | 1018.3 |
| 20260906055537 | 23 | 37 | 8.0 | 16.1 | 0.00 | 0.00 | 0.00 | 86 | 1018.1 |
| 20260906055037 | 23 | 49 | 9.7 | 16.1 | 0.00 | 0.00 | 0.00 | 86 | 1018.1 |
| 20260906054603 | 23 | 51 | 6.4 | 14.5 | 0.00 | 0.00 | 0.00 | 86 | 1018.1 |
| 20260906054037 | 23 | 43 | 8.0 | 16.1 | 0.00 | 0.00 | 0.00 | 86 | 1018.0 |
| 20260906053536 | 23 | 47 | 6.4 | 16.1 | 0.00 | 0.00 | 0.00 | 86 | 1018.0 |
| 20260906053057 | 23 | 26 | 8.0 | 16.1 | 0.00 | 0.00 | 0.00 | 86 | 1018.0 |
| 20260906052538 | 23 | 43 | 6.4 | 11.3 | 0.00 | 0.00 | 0.00 | 86 | 1017.9 |
| 20260906052038 | 23 | 33 | 6.4 | 11.3 | 0.00 | 0.00 | 0.00 | 86 | 1017.9 |
| 20260906051558 | 23 | 36 | 4.8 | 11.3 | 0.00 | 0.00 | 0.00 | 86 | 1017.8 |
| 20260906051036 | 23 | 36 | 6.4 | 12.9 | 0.00 | 0.00 | 0.00 | 86 | 1017.8 |
| 20260906050536 | 23 | 32 | 6.4 | 12.9 | 0.00 | 0.00 | 0.00 | 86 | 1017.6 |
| 20260906050052 | 23 | 38 | 4.8 | 9.7 | 0.00 | 0.00 | 0.00 | 86 | 1017.6 |
| 20260906045539 | 23 | 25 | 3.2 | 9.7 | 0.00 | 0.00 | 0.00 | 86 | 1017.5 |
| 20260906045037 | 23 | 41 | 3.2 | 9.7 | 0.00 | 0.00 | 0.00 | 86 | 1017.4 |
| 20260906044549 | 23 | 43 | 4.8 | 9.7 | 0.00 | 0.00 | 0.00 | 86 | 1017.3 |
| 20260906044036 | 23 | 34 | 4.8 | 11.3 | 0.00 | 0.00 | 0.00 | 86 | 1017.3 |
| 20260906043536 | 23 | 32 | 4.8 | 11.3 | 0.00 | 0.00 | 0.00 | 85 | 1017.4 |
| 20260906043054 | 23 | 36 | 4.8 | 11.3 | 0.00 | 0.00 | 0.00 | 85 | 1017.4 |
| 20260906042536 | 23 | 31 | 4.8 | 11.3 | 0.00 | 0.00 | 0.00 | 85 | 1017.4 |
| 20260906042038 | 23 | 39 | 4.8 | 11.3 | 0.00 | 0.00 | 0.00 | 85 | 1017.5 |
| 20260906041553 | 23 | 35 | 4.8 | 8.0 | 0.00 | 0.00 | 0.00 | 85 | 1017.5 |
| 20260906041038 | 23 | 37 | 3.2 | 8.0 | 0.00 | 0.00 | 0.00 | 85 | 1017.5 |
| 20260906040538 | 23 | 38 | 4.8 | 9.7 | 0.00 | 0.00 | 0.00 | 85 | 1017.3 |
| 20260906040050 | 23 | 61 | 4.8 | 12.9 | 0.00 | 0.00 | 0.00 | 85 | 1017.2 |
| 20260906035537 | 23 | 34 | 6.4 | 12.9 | 0.00 | 0.00 | 0.00 | 85 | 1016.9 |
| 20260906035039 | 23 | 40 | 6.4 | 12.9 | 0.00 | 0.00 | 0.00 | 85 | 1016.7 |
| 20260906034604 | 23 | 47 | 6.4 | 11.3 | 0.00 | 0.00 | 0.00 | 85 | 1016.7 |
| 20260906034038 | 23 | 64 | 6.4 | 11.3 | 0.00 | 0.00 | 0.00 | 85 | 1016.8 |
| 20260906033534 | 23 | 59 | 4.8 | 12.9 | 0.00 | 0.00 | 0.00 | 85 | 1016.7 |
| 20260906033055 | 23 | 43 | 4.8 | 12.9 | 0.00 | 0.00 | 0.00 | 84 | 1016.7 |
| 20260906032538 | 24 | 73 | 6.4 | 12.9 | 0.00 | 0.00 | 0.00 | 84 | 1016.6 |
| 20260906032035 | 24 | 26 | 6.4 | 12.9 | 0.00 | 0.00 | 0.00 | 84 | 1016.7 |
| 20260906031554 | 24 | 57 | 8.0 | 12.9 | 0.00 | 0.00 | 0.00 | 84 | 1016.7 |
| 20260906031038 | 24 | 70 | 6.4 | 12.9 | 0.00 | 0.00 | 0.00 | 84 | 1016.8 |
| 20260906030535 | 24 | 74 | 4.8 | 12.9 | 0.00 | 0.00 | 0.00 | 84 | 1016.8 |
| 20260906030056 | 24 | 58 | 4.8 | 11.3 | 0.00 | 0.00 | 0.00 | 84 | 1016.8 |
| 20260906025534 | 24 | 35 | 6.4 | 14.5 | 0.00 | 0.00 | 0.00 | 84 | 1016.8 |
| 20260906025040 | 25 | 51 | 9.7 | 17.7 | 0.00 | 0.00 | 0.00 | 84 | 1016.9 |
| 20260906024557 | 25 | 36 | 9.7 | 17.7 | 0.00 | 0.00 | 0.00 | 84 | 1016.8 |
| 20260906024038 | 25 | 59 | 8.0 | 14.5 | 0.00 | 0.00 | 0.00 | 84 | 1017.0 |
| 20260906023538 | 25 | 49 | 6.4 | 14.5 | 0.00 | 0.00 | 0.00 | 84 | 1016.7 |
| 20260906023048 | 25 | 68 | 8.0 | 16.1 | 0.00 | 0.00 | 0.00 | 83 | 1016.8 |
| 20260906022537 | 25 | 49 | 9.7 | 16.1 | 0.00 | 0.00 | 0.00 | 83 | 1016.7 |
| 20260906022038 | 25 | 43 | 9.7 | 19.3 | 0.00 | 0.00 | 0.00 | 83 | 1016.7 |
| 20260906021556 | 25 | 46 | 9.7 | 19.3 | 0.00 | 0.00 | 0.00 | 82 | 1016.6 |
| 20260906021119 | 25 | 50 | 11.3 | 17.7 | 0.00 | 0.00 | 0.00 | 82 | 1016.5 |
| 20260906020535 | 25 | 30 | 11.3 | 17.7 | 0.00 | 0.00 | 0.00 | 82 | 1016.4 |
| 20260906020056 | 26 | 35 | 8.0 | 17.7 | 0.00 | 0.00 | 0.00 | 82 | 1016.3 |
| 20260906015535 | 26 | 53 | 11.3 | 17.7 | 0.00 | 0.00 | 0.00 | 82 | 1016.3 |
| 20260906015037 | 26 | 34 | 11.3 | 17.7 | 0.00 | 0.00 | 0.00 | 82 | 1016.3 |
| 20260906014554 | 26 | 36 | 9.7 | 20.9 | 0.00 | 0.00 | 0.00 | 82 | 1016.3 |
| 20260906014034 | 26 | 24 | 12.9 | 20.9 | 0.00 | 0.00 | 0.00 | 81 | 1016.1 |
| 20260906013541 | 26 | 30 | 14.5 | 20.9 | 0.00 | 0.00 | 0.00 | 81 | 1016.1 |
| 20260906013058 | 26 | 32 | 12.9 | 17.7 | 0.00 | 0.00 | 0.00 | 81 | 1016.1 |
| 20260906012537 | 26 | 16 | 11.3 | 17.7 | 0.00 | 0.00 | 0.00 | 81 | 1016.1 |
| 20260906012038 | 27 | 31 | 12.9 | 17.7 | 0.00 | 0.00 | 0.00 | 80 | 1016.1 |
| 20260906011555 | 27 | 32 | 12.9 | 19.3 | 0.00 | 0.00 | 0.00 | 80 | 1016.1 |
| 20260906011035 | 27 | 42 | 12.9 | 19.3 | 0.00 | 0.00 | 0.00 | 79 | 1015.9 |
| 20260906010539 | 27 | 37 | 9.7 | 17.7 | 0.00 | 0.00 | 0.00 | 79 | 1015.8 |
| 20260906010137 | 27 | 28 | 9.7 | 17.7 | 0.00 | 0.00 | 0.00 | 79 | 1015.8 |
| 20260906005534 | 27 | 36 | 11.3 | 17.7 | 0.00 | 0.00 | 0.00 | 78 | 1015.7 |
| 20260906005040 | 27 | 28 | 11.3 | 16.1 | 0.00 | 0.00 | 0.00 | 78 | 1015.7 |
| 20260906004608 | 28 | 39 | 9.7 | 16.1 | 0.00 | 0.00 | 0.00 | 78 | 1015.7 |
| 20260906004037 | 28 | 11 | 8.0 | 14.5 | 0.00 | 0.00 | 0.00 | 78 | 1015.7 |
| 20260906003538 | 28 | 27 | 9.7 | 14.5 | 0.00 | 0.00 | 0.00 | 77 | 1015.6 |
| 20260906003058 | 28 | 22 | 9.7 | 14.5 | 0.00 | 0.00 | 0.00 | 77 | 1015.7 |
| 20260906002539 | 28 | 34 | 8.0 | 17.7 | 0.00 | 0.00 | 0.00 | 76 | 1015.7 |
| 20260906002036 | 28 | 34 | 12.9 | 17.7 | 0.00 | 0.00 | 0.00 | 76 | 1015.6 |
| 20260906001603 | 28 | 2 | 8.0 | 16.1 | 0.00 | 0.00 | 0.00 | 76 | 1015.7 |
| 20260906001038 | 29 | 16 | 11.3 | 20.9 | 0.00 | 0.00 | 0.00 | 76 | 1015.7 |
| 20260906000535 | 29 | 28 | 14.5 | 20.9 | 0.00 | 0.00 | 0.00 | 76 | 1015.7 |
| 20260906000057 | 29 | 35 | 12.9 | 20.9 | 0.00 | 0.00 | 0.00 | 76 | 1015.7 |
| 20260905235538 | 30 | 18 | 11.3 | 22.5 | 0.00 | 0.00 | 0.00 | 75 | 1015.6 |
| 20260905235035 | 30 | 7 | 14.5 | 22.5 | 0.00 | 0.00 | 0.00 | 75 | 1015.5 |
| 20260905234551 | 30 | 32 | 16.1 | 22.5 | 0.00 | 0.00 | 0.00 | 74 | 1015.5 |
| 20260905234038 | 30 | 18 | 12.9 | 20.9 | 0.00 | 0.00 | 0.00 | 73 | 1015.4 |
| 20260905233536 | 31 | 15 | 8.0 | 14.5 | 0.00 | 0.00 | 0.00 | 73 | 1015.4 |
| 20260905233056 | 31 | 22 | 9.7 | 14.5 | 0.00 | 0.00 | 0.00 | 73 | 1015.4 |
| 20260905232535 | 31 | 15 | 8.0 | 12.9 | 0.00 | 0.00 | 0.00 | 72 | 1015.4 |
| 20260905232035 | 31 | 25 | 6.4 | 12.9 | 0.00 | 0.00 | 0.00 | 72 | 1015.3 |
| 20260905231556 | 31 | 30 | 6.4 | 14.5 | 0.00 | 0.00 | 0.00 | 71 | 1015.2 |
| 20260905231036 | 31 | 28 | 9.7 | 19.3 | 0.00 | 0.00 | 0.00 | 70 | 1015.1 |
| 20260905230537 | 31 | 22 | 11.3 | 19.3 | 0.00 | 0.00 | 0.00 | 69 | 1015.2 |
| 20260905230048 | 32 | 12 | 12.9 | 19.3 | 0.00 | 0.00 | 0.00 | 68 | 1015.2 |
| 20260905225538 | 32 | 10 | 11.3 | 16.1 | 0.00 | 0.00 | 0.00 | 68 | 1015.1 |
| 20260905225035 | 32 | 22 | 9.7 | 14.5 | 0.00 | 0.00 | 0.00 | 67 | 1015.1 |
| 20260905224545 | 32 | 16 | 9.7 | 16.1 | 0.00 | 0.00 | 0.00 | 67 | 1015.1 |
| 20260905224036 | 32 | 45 | 6.4 | 16.1 | 0.00 | 0.00 | 0.00 | 68 | 1015.1 |
| 20260905223536 | 32 | 41 | 9.7 | 16.1 | 0.00 | 0.00 | 0.00 | 67 | 1015.1 |
| 20260905223056 | 32 | 29 | 8.0 | 12.9 | 0.00 | 0.00 | 0.00 | 66 | 1015.1 |
| 20260905222536 | 32 | 39 | 6.4 | 12.9 | 0.00 | 0.00 | 0.00 | 67 | 1015.1 |
| 20260905222036 | 32 | 9 | 9.7 | 12.9 | 0.00 | 0.00 | 0.00 | 67 | 1015.0 |
| 20260905221554 | 33 | 11 | 6.4 | 11.3 | 0.00 | 0.00 | 0.00 | 65 | 1015.1 |
| 20260905221036 | 33 | 21 | 4.8 | 14.5 | 0.00 | 0.00 | 0.00 | 65 | 1015.1 |
| 20260905220536 | 33 | 27 | 9.7 | 14.5 | 0.00 | 0.00 | 0.00 | 65 | 1015.2 |
| 20260905220046 | 33 | 326 | 8.0 | 12.9 | 0.00 | 0.00 | 0.00 | 66 | 1015.2 |
| 20260905215536 | 32 | 340 | 4.8 | 14.5 | 0.00 | 0.00 | 0.00 | 67 | 1015.1 |
| 20260905215036 | 32 | 7 | 6.4 | 14.5 | 0.00 | 0.00 | 0.00 | 65 | 1015.1 |
| 20260905214553 | 32 | 16 | 9.7 | 14.5 | 0.00 | 0.00 | 0.00 | 65 | 1015.1 |
| 20260905214036 | 32 | 342 | 8.0 | 14.5 | 0.00 | 0.00 | 0.00 | 66 | 1015.0 |
| 20260905213536 | 32 | 357 | 9.7 | 14.5 | 0.00 | 0.00 | 0.00 | 65 | 1015.1 |
| 20260905213050 | 32 | 347 | 6.4 | 16.1 | 0.00 | 0.00 | 0.00 | 65 | 1015.1 |
| 20260905212540 | 32 | 347 | 11.3 | 16.1 | 0.00 | 0.00 | 0.00 | 65 | 1015.2 |
| 20260905212036 | 32 | 7 | 9.7 | 16.1 | 0.00 | 0.00 | 0.00 | 68 | 1015.2 |
| 20260905211601 | 32 | 20 | 12.9 | 16.1 | 0.00 | 0.00 | 0.00 | 67 | 1015.2 |
| 20260905211036 | 32 | 352 | 11.3 | 17.7 | 0.00 | 0.00 | 0.00 | 67 | 1015.4 |
| 20260905210535 | 32 | 345 | 9.7 | 17.7 | 0.00 | 0.00 | 0.00 | 67 | 1015.4 |
| 20260905210110 | 32 | 349 | 14.5 | 17.7 | 0.00 | 0.00 | 0.00 | 67 | 1015.4 |
| 20260905205536 | 32 | 28 | 11.3 | 17.7 | 0.00 | 0.00 | 0.00 | 67 | 1015.5 |
| 20260905205035 | 32 | 354 | 11.3 | 17.7 | 0.00 | 0.00 | 0.00 | 67 | 1015.6 |
| 20260905204552 | 32 | 21 | 8.0 | 17.7 | 0.00 | 0.00 | 0.00 | 68 | 1015.6 |
| 20260905204036 | 32 | 9 | 11.3 | 17.7 | 0.00 | 0.00 | 0.00 | 69 | 1015.6 |
| 20260905203536 | 32 | 42 | 8.0 | 17.7 | 0.00 | 0.00 | 0.00 | 69 | 1015.6 |
| 20260905203048 | 32 | 11 | 11.3 | 17.7 | 0.00 | 0.00 | 0.00 | 69 | 1015.6 |
| 20260905202535 | 32 | 358 | 8.0 | 16.1 | 0.00 | 0.00 | 0.00 | 69 | 1015.6 |
| 20260905202036 | 32 | 36 | 11.3 | 17.7 | 0.00 | 0.00 | 0.00 | 69 | 1015.5 |
| 20260905201556 | 32 | 357 | 12.9 | 19.3 | 0.00 | 0.00 | 0.00 | 68 | 1015.6 |
| 20260905201035 | 32 | 11 | 12.9 | 17.7 | 0.00 | 0.00 | 0.00 | 67 | 1015.6 |
| 20260905200535 | 33 | 18 | 9.7 | 16.1 | 0.00 | 0.00 | 0.00 | 68 | 1015.6 |
| 20260905200118 | 33 | 352 | 8.0 | 12.9 | 0.00 | 0.00 | 0.00 | 66 | 1015.6 |
| 20260905195535 | 33 | 22 | 6.4 | 12.9 | 0.00 | 0.00 | 0.00 | 66 | 1015.7 |
| 20260905195037 | 32 | 350 | 6.4 | 12.9 | 0.00 | 0.00 | 0.00 | 66 | 1015.8 |
| 20260905194552 | 32 | 336 | 6.4 | 16.1 | 0.00 | 0.00 | 0.00 | 66 | 1015.7 |
| 20260905194036 | 32 | 354 | 8.0 | 16.1 | 0.00 | 0.00 | 0.00 | 67 | 1015.8 |
| 20260905193535 | 32 | 346 | 12.9 | 16.1 | 0.00 | 0.00 | 0.00 | 67 | 1015.9 |
| 20260905193101 | 33 | 343 | 8.0 | 16.1 | 0.00 | 0.00 | 0.00 | 68 | 1015.9 |
| 20260905192536 | 33 | 329 | 9.7 | 16.1 | 0.00 | 0.00 | 0.00 | 65 | 1015.9 |
| 20260905192037 | 33 | 331 | 11.3 | 16.1 | 0.00 | 0.00 | 0.00 | 66 | 1015.8 |
| 20260905191556 | 33 | 324 | 8.0 | 14.5 | 0.00 | 0.00 | 0.00 | 67 | 1015.9 |
| 20260905191036 | 33 | 330 | 4.8 | 12.9 | 0.00 | 0.00 | 0.00 | 65 | 1015.9 |
| 20260905190535 | 33 | 17 | 8.0 | 12.9 | 0.00 | 0.00 | 0.00 | 65 | 1015.9 |
| 20260905190054 | 33 | 353 | 9.7 | 14.5 | 0.00 | 0.00 | 0.00 | 65 | 1016.0 |
| 20260905185535 | 33 | 349 | 9.7 | 14.5 | 0.00 | 0.00 | 0.00 | 65 | 1015.9 |
| 20260905185036 | 33 | 338 | 4.8 | 16.1 | 0.00 | 0.00 | 0.00 | 65 | 1016.0 |
| 20260905184600 | 33 | 341 | 8.0 | 16.1 | 0.00 | 0.00 | 0.00 | 66 | 1015.9 |
| 20260905184039 | 33 | 350 | 6.4 | 16.1 | 0.00 | 0.00 | 0.00 | 65 | 1015.9 |
| 20260905183536 | 33 | 332 | 6.4 | 16.1 | 0.00 | 0.00 | 0.00 | 65 | 1015.9 |
| 20260905183057 | 33 | 9 | 8.0 | 16.1 | 0.00 | 0.00 | 0.00 | 66 | 1016.1 |
| 20260905182539 | 33 | 19 | 11.3 | 16.1 | 0.00 | 0.00 | 0.00 | 66 | 1016.1 |
| 20260905182040 | 33 | 7 | 6.4 | 16.1 | 0.00 | 0.00 | 0.00 | 66 | 1016.0 |
| 20260905181555 | 32 | 20 | 4.8 | 16.1 | 0.00 | 0.00 | 0.00 | 65 | 1016.0 |
| 20260905181035 | 32 | 337 | 9.7 | 16.1 | 0.00 | 0.00 | 0.00 | 65 | 1016.0 |
| 20260905180537 | 32 | 8 | 12.9 | 16.1 | 0.00 | 0.00 | 0.00 | 66 | 1016.1 |
| 20260905180050 | 32 | 16 | 6.4 | 14.5 | 0.00 | 0.00 | 0.00 | 66 | 1016.1 |
| 20260905175536 | 32 | 6 | 9.7 | 14.5 | 0.00 | 0.00 | 0.00 | 67 | 1016.1 |
| 20260905175037 | 32 | 18 | 6.4 | 17.7 | 0.00 | 0.00 | 0.00 | 67 | 1016.1 |
| 20260905174546 | 32 | 340 | 9.7 | 17.7 | 0.00 | 0.00 | 0.00 | 66 | 1016.2 |
| 20260905174039 | 32 | 352 | 12.9 | 17.7 | 0.00 | 0.00 | 0.00 | 66 | 1016.4 |
| 20260905173535 | 32 | 347 | 11.3 | 16.1 | 0.00 | 0.00 | 0.00 | 65 | 1016.3 |
| 20260905173055 | 32 | 19 | 6.4 | 17.7 | 0.00 | 0.00 | 0.00 | 67 | 1016.3 |
| 20260905172536 | 32 | 13 | 9.7 | 17.7 | 0.00 | 0.00 | 0.00 | 66 | 1016.4 |
| 20260905172035 | 32 | 30 | 9.7 | 17.7 | 0.00 | 0.00 | 0.00 | 67 | 1016.5 |
| 20260905171553 | 32 | 30 | 11.3 | 17.7 | 0.00 | 0.00 | 0.00 | 68 | 1016.5 |
| 20260905171037 | 32 | 34 | 9.7 | 17.7 | 0.00 | 0.00 | 0.00 | 69 | 1016.5 |
| 20260905170535 | 32 | 357 | 12.9 | 17.7 | 0.00 | 0.00 | 0.00 | 68 | 1016.6 |
| 20260905170057 | 32 | 11 | 9.7 | 14.5 | 0.00 | 0.00 | 0.00 | 67 | 1016.6 |
| 20260905165537 | 32 | 347 | 8.0 | 16.1 | 0.00 | 0.00 | 0.00 | 68 | 1016.6 |
| 20260905165035 | 32 | 342 | 6.4 | 16.1 | 0.00 | 0.00 | 0.00 | 68 | 1016.6 |
| 20260905164554 | 32 | 6 | 8.0 | 16.1 | 0.00 | 0.00 | 0.00 | 69 | 1016.6 |
| 20260905164036 | 32 | 342 | 6.4 | 16.1 | 0.00 | 0.00 | 0.00 | 69 | 1016.6 |
| 20260905163535 | 31 | 5 | 8.0 | 16.1 | 0.00 | 0.00 | 0.00 | 69 | 1016.6 |
| 20260905163053 | 31 | 21 | 8.0 | 17.7 | 0.00 | 0.00 | 0.00 | 69 | 1016.6 |
| 20260905162535 | 31 | 41 | 8.0 | 17.7 | 0.00 | 0.00 | 0.00 | 69 | 1016.6 |
| 20260905162034 | 31 | 7 | 11.3 | 17.7 | 0.00 | 0.00 | 0.00 | 68 | 1016.6 |
| 20260905161547 | 31 | 334 | 11.3 | 16.1 | 0.00 | 0.00 | 0.00 | 68 | 1016.5 |
| 20260905161036 | 31 | 11 | 9.7 | 16.1 | 0.00 | 0.00 | 0.00 | 68 | 1016.4 |
| 20260905160538 | 31 | 341 | 9.7 | 16.1 | 0.00 | 0.00 | 0.00 | 67 | 1016.4 |
| 20260905160056 | 31 | 330 | 11.3 | 16.1 | 0.00 | 0.00 | 0.00 | 66 | 1016.5 |
| 20260905155536 | 31 | 331 | 8.0 | 16.1 | 0.00 | 0.00 | 0.00 | 67 | 1016.3 |
| 20260905155035 | 31 | 14 | 8.0 | 16.1 | 0.00 | 0.00 | 0.00 | 68 | 1016.3 |
| 20260905154601 | 31 | 343 | 11.3 | 16.1 | 0.00 | 0.00 | 0.00 | 69 | 1016.3 |
| 20260905154035 | 30 | 356 | 11.3 | 17.7 | 0.00 | 0.00 | 0.00 | 70 | 1016.4 |
| 20260905153537 | 30 | 2 | 12.9 | 17.7 | 0.00 | 0.00 | 0.00 | 71 | 1016.5 |
| 20260905153052 | 30 | 1 | 11.3 | 16.1 | 0.00 | 0.00 | 0.00 | 71 | 1016.4 |
| 20260905152535 | 30 | 360 | 6.4 | 16.1 | 0.00 | 0.00 | 0.00 | 70 | 1016.3 |
| 20260905152035 | 30 | 338 | 11.3 | 16.1 | 0.00 | 0.00 | 0.00 | 70 | 1016.3 |
| 20260905151558 | 30 | 353 | 11.3 | 14.5 | 0.00 | 0.00 | 0.00 | 70 | 1016.3 |
| 20260905151035 | 30 | 331 | 8.0 | 12.9 | 0.00 | 0.00 | 0.00 | 71 | 1016.3 |
| 20260905150535 | 30 | 336 | 4.8 | 11.3 | 0.00 | 0.00 | 0.00 | 71 | 1016.2 |
| 20260905150055 | 30 | 325 | 6.4 | 12.9 | 0.00 | 0.00 | 0.00 | 71 | 1016.0 |